Location: ??????
(41.3794°N, 22.5014°E)
Time: 20:17:53
(UTC+00:00)

Lacrosse 4 Rocket - Pass Details

Date: 30 November 2020
Orbit: 538 x 620 km, 68.0° (Epoch: 18 January)

Event Time Altitude Azimuth Distance (km) Brightness Sun altitude
Rises 17:38:52 0° 207° (SSW) 2,677 5.2 -28.9°
Reaches altitude 10° 17:41:02 10° 207° (SSW) 1,794 4.3 -29.3°
Enters shadow 17:41:49 15° 207° (SSW) 1,482 3.8 -29.5°
